FW4381 Oriental NC US current weather conditions

sailwx.info

Wind from 175

Air temperature 24.4° C
Dewpoint 23.4° C

Last reported at 2020-Sep-18 10:05 UTC.
Time now 2020-Sep-18 10:55 UTC

Location: N 35°03' W 076°40'.
View on Google Maps.

See reports from other nearby stations

  
Tides and Currents Weather Stations Pressure Air Temp Water Temp Dewpoint Dewpoint Depression Visibility Wind Speed Wind Dir Waves Ship Positions
date/time (UTC)wind fromknots sea level pressurealtimeterstation pressurevisibilityair tempwater tempwave heightnotes
2020-Sep-18 10:05 175 24.4
2020-Sep-18 10:00 175 0 gusting 1 24.4
2020-Sep-18 09:55 172 24.4
2020-Sep-18 09:50 172 24.4
2020-Sep-18 09:45 172 24.4
2020-Sep-18 09:40 172 0 gusting 1 24.4
2020-Sep-18 09:35 192 0 gusting 2 24.4
2020-Sep-18 09:31 192 24.4
2020-Sep-18 09:25 161 0 gusting 2 25.0
2020-Sep-18 09:20 159 25.0
2020-Sep-18 09:15 209 25.0
2020-Sep-18 09:05 232 0 gusting 2 25.0
2020-Sep-18 09:00 299 25.0
2020-Sep-18 08:55 296 1 gusting 4 25.0
2020-Sep-18 08:50 246 25.0
2020-Sep-18 08:46 246 24.4
2020-Sep-18 08:40 246 25.0
2020-Sep-18 08:35 246 25.0
2020-Sep-18 08:30 247 4 gusting 11 25.6
2020-Sep-18 08:25 219 6 gusting 11 25.6
2020-Sep-18 08:20 199 1 gusting 6 25.6
2020-Sep-18 08:15 050 0 gusting 1 26.1
2020-Sep-18 08:10 009 0 gusting 2 26.1
2020-Sep-18 08:05 234 0 gusting 6 26.1
2020-Sep-18 08:00 227 2 gusting 6 26.1
2020-Sep-18 07:55 231 2 gusting 8 26.1
2020-Sep-18 07:50 226 2 gusting 8 26.1
2020-Sep-18 07:45 230 2 gusting 6 26.1
2020-Sep-18 07:40 246 3 gusting 8 26.1
2020-Sep-18 07:35 255 3 gusting 8 26.1
2020-Sep-18 07:30 242 3 gusting 9 26.1
2020-Sep-18 07:25 228 2 gusting 10 26.1
2020-Sep-18 07:20 229 4 gusting 13 26.1
2020-Sep-18 07:15 234 4 gusting 13 26.7
2020-Sep-18 07:10 240 5 gusting 13 26.7
2020-Sep-18 07:05 171 6 gusting 13 26.7
2020-Sep-18 07:00 240 4 gusting 9 26.1
2020-Sep-18 06:55 233 3 gusting 7 26.1
2020-Sep-18 06:50 232 4 gusting 9 26.1
2020-Sep-18 06:45 223 4 gusting 6 26.7
2020-Sep-18 06:40 244 3 gusting 10 26.7
2020-Sep-18 06:35 204 4 gusting 13 26.7
2020-Sep-18 06:32 210 6 gusting 11 26.1
2020-Sep-18 06:25 211 5 gusting 8 26.1
2020-Sep-18 06:20 194 5 gusting 9 26.1
2020-Sep-18 06:15 238 5 gusting 13 26.1
2020-Sep-18 06:10 188 2 gusting 13 26.7
2020-Sep-18 06:05 209 5 gusting 13 26.7
2020-Sep-18 06:00 240 6 gusting 13 26.7
2020-Sep-18 05:55 173 6 gusting 13 26.7
2020-Sep-18 05:50 203 6 gusting 12 26.1
2020-Sep-18 05:45 237 5 gusting 8 26.1
2020-Sep-18 05:40 230 5 gusting 12 26.1
2020-Sep-18 05:35 218 7 gusting 13 26.1
2020-Sep-18 05:32 229 5 gusting 13 26.1
2020-Sep-18 05:25 222 6 gusting 13 26.7
2020-Sep-18 05:20 200 6 gusting 11 26.1
2020-Sep-18 05:15 227 8 gusting 11 26.1
2020-Sep-18 05:10 206 8 gusting 12 26.1
2020-Sep-18 05:05 192 8 gusting 12 26.1
2020-Sep-18 05:00 195 6 gusting 10 25.6
2020-Sep-18 04:55 206 4 gusting 7 25.6
2020-Sep-18 04:50 203 4 gusting 8 25.6
2020-Sep-18 04:45 202 5 gusting 7 25.6
2020-Sep-18 04:35 209 5 gusting 8 25.0
2020-Sep-18 04:30 180 5 gusting 7 25.0
2020-Sep-18 04:25 211 4 gusting 7 25.0
2020-Sep-18 04:20 201 4 gusting 6 25.0
2020-Sep-18 04:15 205 3 gusting 6 25.0
2020-Sep-18 04:10 228 2 gusting 6 25.0
2020-Sep-18 04:05 165 0 gusting 3 24.4
2020-Sep-18 04:00 140 0 gusting 2 24.4
2020-Sep-18 03:55 184 0 gusting 2 24.4
2020-Sep-18 03:50 163 0 gusting 2 23.9
2020-Sep-18 03:46 135 23.9
2020-Sep-18 03:40 123 0 gusting 3 23.9
2020-Sep-18 03:35 091 0 gusting 3 23.9
2020-Sep-18 03:30 109 0 gusting 2 23.3
2020-Sep-18 03:25 126 23.3
2020-Sep-18 03:20 067 23.3
2020-Sep-18 03:16 057 23.3
2020-Sep-18 03:10 057 23.3
2020-Sep-18 03:05 050 0 gusting 1 23.3
2020-Sep-18 03:00 050 23.3
2020-Sep-18 02:55 050 0 gusting 1 23.3
2020-Sep-18 02:50 050 0 gusting 1 23.3
2020-Sep-18 02:45 050 23.3
2020-Sep-18 02:40 050 0 gusting 1 23.3
2020-Sep-18 02:35 050 23.3
2020-Sep-18 02:30 050 0 gusting 0 23.9
2020-Sep-18 02:20 050 23.9
2020-Sep-18 02:15 053 1 gusting 4 23.9
2020-Sep-18 02:10 201 1 gusting 3 23.3
2020-Sep-18 02:05 126 0 gusting 4 23.3
2020-Sep-18 02:01 172 2 gusting 4 23.3
2020-Sep-18 01:55 175 0 gusting 4 23.3
2020-Sep-18 01:50 180 1 gusting 4 23.3
2020-Sep-18 01:46 158 2 gusting 7 23.3
2020-Sep-18 01:35 205 2 gusting 3 23.3
2020-Sep-18 01:31 144 23.3
2020-Sep-18 01:25 178 3 gusting 6 23.9
2020-Sep-18 01:20 360 0 gusting 2 23.9
2020-Sep-18 01:16 338 23.3
2020-Sep-18 01:10 338 1 gusting 6 23.9
2020-Sep-18 01:05 049 1 gusting 6 23.9
2020-Sep-18 01:00 221 1 gusting 6 23.9
2020-Sep-18 00:55 038 0 gusting 5 23.9
2020-Sep-18 00:50 017 2 gusting 5 23.9
2020-Sep-18 00:47 057 1 gusting 4 23.3
2020-Sep-18 00:40 166 1 gusting 7 23.9
2020-Sep-18 00:35 198 2 gusting 7 23.9
2020-Sep-18 00:30 046 5 gusting 8 23.9
2020-Sep-18 00:20 166 1 gusting 3 23.9
2020-Sep-18 00:15 161 0 gusting 3 23.9
2020-Sep-18 00:10 192 0 gusting 3 23.9
2020-Sep-18 00:05 192 0 gusting 3 23.9
2020-Sep-18 00:00 092 0 gusting 2 23.9
2020-Sep-17 23:50 052 1 gusting 3 23.9
2020-Sep-17 23:45 154 0 gusting 1 23.9
2020-Sep-17 23:40 154 23.9
2020-Sep-17 23:35 154 0 gusting 2 23.9
2020-Sep-17 23:32 223 23.9
2020-Sep-17 23:25 223 0 gusting 1 23.9
2020-Sep-17 23:20 204 0 gusting 1 23.9
2020-Sep-17 23:15 180 23.9
2020-Sep-17 23:10 180 0 gusting 1 23.9
2020-Sep-17 23:05 180 0 gusting 0 23.9
2020-Sep-17 23:00 180 23.9
2020-Sep-17 22:55 180 23.9
2020-Sep-17 22:50 180 23.9
2020-Sep-17 22:45 198 0 gusting 3 23.9
2020-Sep-17 22:40 180 2 gusting 4 23.9
2020-Sep-17 22:35 213 1 gusting 6 23.9
2020-Sep-17 22:32 190 4 gusting 6 23.9
2020-Sep-17 22:26 172 2 gusting 6 24.4
2020-Sep-17 22:20 210 5 gusting 6 24.4
2020-Sep-17 22:15 173 24.4
2020-Sep-17 22:10 200 24.4
2020-Sep-17 22:05 180 1 gusting 2 24.4
2020-Sep-17 22:00 121 0 gusting 3 24.4
2020-Sep-17 21:55 137 0 gusting 4 24.4
2020-Sep-17 21:50 144 1 gusting 4 24.4
2020-Sep-17 21:45 118 0 gusting 4 24.4
2020-Sep-17 21:40 089 1 gusting 4 24.4
2020-Sep-17 21:35 229 0 gusting 2 24.4
2020-Sep-17 21:30 290 24.4
2020-Sep-17 21:25 320 2 gusting 5 24.4
2020-Sep-17 21:20 045 2 gusting 4 24.4
2020-Sep-17 21:17 038 1 gusting 4 23.9
2020-Sep-17 21:10 037 2 gusting 6 24.4
2020-Sep-17 21:05 064 2 gusting 6 24.4
2020-Sep-17 21:00 055 1 gusting 3 24.4
2020-Sep-17 20:55 042 0 gusting 2 24.4
2020-Sep-17 20:50 067 0 gusting 2 24.4
2020-Sep-17 20:47 059 0 gusting 2 23.9
2020-Sep-17 20:40 061 0 gusting 1 24.4
2020-Sep-17 20:35 061 0 gusting 1 24.4
2020-Sep-17 20:30 061 0 gusting 2 24.4
2020-Sep-17 20:25 061 0 gusting 3 24.4
2020-Sep-17 20:20 057 1 gusting 3 24.4
2020-Sep-17 20:15 076 1 gusting 3 24.4
2020-Sep-17 20:10 119 1 gusting 3 24.4
2020-Sep-17 20:05 074 0 gusting 2 24.4
2020-Sep-17 20:00 073 0 gusting 3 24.4
2020-Sep-17 19:55 073 1 gusting 3 24.4
2020-Sep-17 19:50 067 1 gusting 3 24.4
2020-Sep-17 19:45 084 1 gusting 2 24.4
2020-Sep-17 19:40 130 0 gusting 4 24.4
2020-Sep-17 19:35 153 0 gusting 4 24.4
2020-Sep-17 19:30 164 0 gusting 4 24.4
2020-Sep-17 19:26 161 1 gusting 4 24.4
2020-Sep-17 19:20 165 1 gusting 4 24.4
2020-Sep-17 19:15 188 0 gusting 3 24.4
2020-Sep-17 19:10 125 0 gusting 3 24.4
2020-Sep-17 19:05 119 2 gusting 3 24.4
2020-Sep-17 19:00 098 0 gusting 5 24.4
2020-Sep-17 18:55 196 2 gusting 3 24.4
2020-Sep-17 18:50 167 1 gusting 4 24.4
2020-Sep-17 18:46 171 1 gusting 6 23.9
2020-Sep-17 18:40 133 3 gusting 6 24.4
2020-Sep-17 18:35 109 1 gusting 3 24.4
2020-Sep-17 18:30 127 0 gusting 5 24.4
2020-Sep-17 18:25 136 2 gusting 5 24.4
2020-Sep-17 18:20 122 1 gusting 4 24.4
2020-Sep-17 18:15 097 2 gusting 5 24.4
2020-Sep-17 18:10 114 1 gusting 4 24.4
2020-Sep-17 18:05 081 2 gusting 6 24.4
2020-Sep-17 18:00 105 2 gusting 6 24.4
2020-Sep-17 17:55 217 1 gusting 5 24.4
2020-Sep-17 17:50 148 2 gusting 5 24.4
2020-Sep-17 17:45 142 0 gusting 4 24.4
2020-Sep-17 17:40 163 2 gusting 6 23.9
2020-Sep-17 17:35 197 2 gusting 8 23.9
2020-Sep-17 17:30 146 2 gusting 8 23.9
2020-Sep-17 17:25 186 3 gusting 8 23.9
2020-Sep-17 17:20 182 2 gusting 8 23.9
2020-Sep-17 17:15 171 4 gusting 8 23.9
2020-Sep-17 17:10 209 3 gusting 8 23.9
2020-Sep-17 17:05 159 1 gusting 8 23.9
2020-Sep-17 17:00 179 3 gusting 8 23.9
2020-Sep-17 16:55 117 3 gusting 6 23.9
2020-Sep-17 16:50 161 1 gusting 6 23.9
2020-Sep-17 16:48 189 1 gusting 6 23.9
2020-Sep-17 16:40 120 1 gusting 5 23.9
2020-Sep-17 16:35 095 1 gusting 4 23.9
2020-Sep-17 16:30 073 1 gusting 5 23.9
2020-Sep-17 16:25 077 0 gusting 3 23.9
2020-Sep-17 16:20 083 2 gusting 4 23.9
2020-Sep-17 16:16 091 1 gusting 4 23.9
2020-Sep-17 16:10 061 1 gusting 6 23.9
2020-Sep-17 16:05 047 1 gusting 6 23.9
2020-Sep-17 16:00 131 0 gusting 3 23.9
2020-Sep-17 15:55 067 1 gusting 3 23.3
2020-Sep-17 15:50 061 0 gusting 3 23.3
2020-Sep-17 15:48 067 0 gusting 3 23.3
2020-Sep-17 15:40 086 0 gusting 3 23.3
2020-Sep-17 15:35 066 1 gusting 3 23.3
2020-Sep-17 15:30 109 23.3
2020-Sep-17 15:25 101 2 gusting 3 23.3
2020-Sep-17 15:20 155 0 gusting 4 23.3
2020-Sep-17 15:15 168 0 gusting 6 23.3
2020-Sep-17 15:10 172 2 gusting 9 23.3
2020-Sep-17 15:05 199 3 gusting 14 23.3
2020-Sep-17 15:00 184 6 gusting 14 23.3
2020-Sep-17 14:55 215 8 gusting 13 23.9
2020-Sep-17 14:50 174 8 gusting 12 25.0
2020-Sep-17 14:45 063 0 gusting 5 25.0
2020-Sep-17 14:40 042 1 gusting 5 25.0
2020-Sep-17 14:35 118 1 gusting 5 25.0
2020-Sep-17 14:32 130 0 gusting 5 25.0
2020-Sep-17 14:25 096 1 gusting 4 25.0
2020-Sep-17 14:20 030 1 gusting 4 25.0
2020-Sep-17 14:15 061 1 gusting 3 25.0
2020-Sep-17 14:10 082 1 gusting 4 25.0
2020-Sep-17 14:05 184 1 gusting 6 25.0
2020-Sep-17 14:00 141 2 gusting 6 25.0
2020-Sep-17 13:55 176 0 gusting 4 24.4
2020-Sep-17 13:50 132 1 gusting 5 24.4
2020-Sep-17 13:46 163 0 gusting 5 24.4
2020-Sep-17 13:40 167 0 gusting 3 24.4
2020-Sep-17 13:35 038 0 gusting 4 24.4
2020-Sep-17 13:30 134 1 gusting 4 24.4
2020-Sep-17 13:25 055 0 gusting 4 24.4
2020-Sep-17 13:20 115 0 gusting 4 24.4
2020-Sep-17 13:15 160 1 gusting 6 24.4
2020-Sep-17 13:10 108 2 gusting 6 23.9
2020-Sep-17 13:05 070 2 gusting 6 23.9
2020-Sep-17 13:00 103 0 gusting 6 23.3
2020-Sep-17 12:55 179 2 gusting 4 23.9
2020-Sep-17 12:50 148 0 gusting 5 23.9
2020-Sep-17 12:45 111 1 gusting 5 23.9
2020-Sep-17 12:40 085 0 gusting 4 23.9
2020-Sep-17 12:36 111 0 gusting 2 23.9
2020-Sep-17 12:31 084 23.3
2020-Sep-17 12:25 119 23.3
2020-Sep-17 12:20 153 0 gusting 3 23.3
2020-Sep-17 12:16 097 23.3
2020-Sep-17 12:10 117 0 gusting 3 23.9
2020-Sep-17 12:05 165 1 gusting 4 23.9
2020-Sep-17 12:00 148 0 gusting 7 24.4
2020-Sep-17 11:55 136 2 gusting 7 24.4
2020-Sep-17 11:50 161 2 gusting 6 24.4
2020-Sep-17 11:45 160 2 gusting 5 24.4
2020-Sep-17 11:40 215 0 gusting 5 24.4
2020-Sep-17 11:35 191 0 gusting 5 24.4
2020-Sep-17 11:30 111 1 gusting 5 23.9
2020-Sep-17 11:25 146 0 gusting 5 24.4
2020-Sep-17 11:20 160 2 gusting 10 24.4
2020-Sep-17 11:15 154 0 gusting 10 24.4
2020-Sep-17 11:10 123 2 gusting 6 23.9
2020-Sep-17 11:05 188 1 gusting 6 23.9
2020-Sep-17 11:00 178 2 gusting 6 24.4
2020-Sep-17 10:55 190 4 gusting 6 24.4
2020-Sep-17 10:50 147 3 gusting 8 24.4
2020-Sep-17 10:45 116 3 gusting 8 24.4
2020-Sep-17 10:40 199 3 gusting 8 24.4
2020-Sep-17 10:35 225 2 gusting 8 25.0
2020-Sep-17 10:32 193 4 gusting 8 24.4
2020-Sep-17 10:25 232 2 gusting 6 25.0
2020-Sep-17 10:20 165 2 gusting 7 25.0
2020-Sep-17 10:16 234 2 gusting 7 25.0
2020-Sep-17 10:10 175 2 gusting 6 25.0
2020-Sep-17 10:05 167 1 gusting 6 25.0
2020-Sep-17 10:00 194 1 gusting 6 25.0
2020-Sep-17 09:55 172 1 gusting 6 25.6
2020-Sep-17 09:50 121 2 gusting 6 25.6
2020-Sep-17 09:47 168 3 gusting 6 25.0
2020-Sep-17 09:40 206 1 gusting 5 25.6
2020-Sep-17 09:35 161 1 gusting 6 25.0
2020-Sep-17 09:30 157 1 gusting 6 25.0
2020-Sep-17 09:25 217 1 gusting 5 25.0
2020-Sep-17 09:20 175 1 gusting 6 25.0
2020-Sep-17 09:15 132 2 gusting 4 25.0
2020-Sep-17 09:10 122 0 gusting 4 25.0
2020-Sep-17 09:05 182 1 gusting 4 25.0
2020-Sep-17 09:00 137 0 gusting 4 25.0
2020-Sep-17 08:55 143 0 gusting 4 25.0
2020-Sep-17 08:50 120 0 gusting 3 25.0
2020-Sep-17 08:45 267 0 gusting 3 25.0
2020-Sep-17 08:40 157 1 gusting 3 25.0
2020-Sep-17 08:35 165 1 gusting 3 25.0
2020-Sep-17 08:33 157 24.4
2020-Sep-17 08:25 186 0 gusting 3 25.0
2020-Sep-17 08:20 203 0 gusting 3 25.0
2020-Sep-17 08:15 202 0 gusting 4 25.0
2020-Sep-17 08:05 146 0 gusting 4 25.0
2020-Sep-17 08:01 164 0 gusting 3 25.0
2020-Sep-17 07:55 134 1 gusting 2 25.0
2020-Sep-17 07:50 161 0 gusting 3 25.6
2020-Sep-17 07:46 180 0 gusting 4 25.6
2020-Sep-17 07:40 161 1 gusting 4 25.6
2020-Sep-17 07:35 145 0 gusting 4 25.6
2020-Sep-17 07:30 192 1 gusting 2 25.6
2020-Sep-17 07:25 156 1 gusting 3 25.6
2020-Sep-17 07:20 165 0 gusting 4 25.6
2020-Sep-17 07:17 115 0 gusting 4 25.0
2020-Sep-17 07:10 155 1 gusting 5 25.6
2020-Sep-17 07:05 151 2 gusting 5 25.6
2020-Sep-17 07:00 196 1 gusting 3 25.6
2020-Sep-17 06:55 156 0 gusting 2 25.6
2020-Sep-17 06:50 192 0 gusting 3 25.6
2020-Sep-17 06:45 175 1 gusting 4 25.6
2020-Sep-17 06:40 200 2 gusting 4 25.6
2020-Sep-17 06:35 168 1 gusting 4 25.6
2020-Sep-17 06:30 165 0 gusting 4 25.0
2020-Sep-17 06:25 128 1 gusting 4 25.6
2020-Sep-17 06:20 175 1 gusting 4 25.6
2020-Sep-17 06:15 216 1 gusting 6 25.6
2020-Sep-17 06:10 169 2 gusting 6 25.6
2020-Sep-17 06:05 194 2 gusting 4 25.6
2020-Sep-17 06:01 148 1 gusting 7 25.0
2020-Sep-17 05:55 117 4 gusting 7 25.6
2020-Sep-17 05:50 171 2 gusting 6 25.6
2020-Sep-17 05:46 101 1 gusting 6 25.0
2020-Sep-17 05:40 175 2 gusting 5 25.6
2020-Sep-17 05:35 121 1 gusting 3 25.6
2020-Sep-17 05:30 151 0 gusting 6 25.6
2020-Sep-17 05:25 155 1 gusting 6 25.6
2020-Sep-17 05:20 161 2 gusting 6 25.6
2020-Sep-17 05:16 148 0 gusting 6 25.0
2020-Sep-17 05:10 150 1 gusting 6 25.6
2020-Sep-17 05:05 157 1 gusting 5 25.6
2020-Sep-17 05:00 133 2 gusting 5 25.6
2020-Sep-17 04:55 155 0 gusting 6 25.6
2020-Sep-17 04:50 217 2 gusting 6 25.6
2020-Sep-17 04:45 155 2 gusting 6 25.6
2020-Sep-17 04:40 167 0 gusting 4 25.6
2020-Sep-17 04:35 220 1 gusting 4 25.0
2020-Sep-17 04:30 175 1 gusting 5 25.0
2020-Sep-17 04:25 100 1 gusting 3 25.0
2020-Sep-17 04:20 121 1 gusting 2 25.0
2020-Sep-17 04:15 161 1 gusting 4 25.0
2020-Sep-17 04:10 206 1 gusting 6 25.0
2020-Sep-17 04:05 198 1 gusting 6 25.0
2020-Sep-17 04:00 132 2 gusting 6 25.0
2020-Sep-17 03:55 206 2 gusting 5 25.0
2020-Sep-17 03:50 169 2 gusting 5 25.0
2020-Sep-17 03:45 161 1 gusting 4 25.6
2020-Sep-17 03:40 206 1 gusting 4 25.6
2020-Sep-17 03:35 192 2 gusting 5 25.6
2020-Sep-17 03:30 120 1 gusting 6 25.6
2020-Sep-17 03:25 147 1 gusting 6 25.6
2020-Sep-17 03:20 167 2 gusting 6 25.6
2020-Sep-17 03:15 129 1 gusting 6 25.6
2020-Sep-17 03:10 153 1 gusting 6 25.6
2020-Sep-17 03:05 078 1 gusting 4 25.6
2020-Sep-17 03:01 154 1 gusting 6 25.0
2020-Sep-17 02:55 178 1 gusting 6 25.6
2020-Sep-17 02:50 168 0 gusting 6 25.6
2020-Sep-17 02:46 157 1 gusting 5 25.0
2020-Sep-17 02:40 168 1 gusting 7 25.6
2020-Sep-17 02:35 115 2 gusting 7 25.6
2020-Sep-17 02:30 113 2 gusting 4 25.6
2020-Sep-17 02:25 197 1 gusting 5 25.6
2020-Sep-17 02:20 142 2 gusting 5 25.6
2020-Sep-17 02:15 145 2 gusting 4 25.6
2020-Sep-17 02:10 160 1 gusting 4 25.6
2020-Sep-17 02:05 150 1 gusting 6 25.6
2020-Sep-17 02:00 181 1 gusting 6 25.6
2020-Sep-17 01:55 140 1 gusting 4 25.6
2020-Sep-17 01:50 128 1 gusting 4 25.6
2020-Sep-17 01:45 136 0 gusting 6 25.6
2020-Sep-17 01:40 098 1 gusting 5 25.6
2020-Sep-17 01:35 128 1 gusting 6 25.6
2020-Sep-17 01:32 127 2 gusting 6 25.0
2020-Sep-17 01:25 065 1 gusting 5 25.6
2020-Sep-17 01:20 136 1 gusting 6 25.6
2020-Sep-17 01:16 096 1 gusting 6 25.0
2020-Sep-17 01:10 072 0 gusting 6 25.6
2020-Sep-17 01:05 157 1 gusting 6 25.6
2020-Sep-17 01:00 175 0 gusting 6 25.6
2020-Sep-17 00:55 104 0 gusting 6 25.6
2020-Sep-17 00:50 140 0 gusting 3 25.6
2020-Sep-17 00:45 160 0 gusting 4 25.6
2020-Sep-17 00:40 083 0 gusting 4 25.6
2020-Sep-17 00:35 163 1 gusting 4 25.6
2020-Sep-17 00:30 221 0 gusting 6 25.6
2020-Sep-17 00:25 084 2 gusting 6 25.6
2020-Sep-17 00:20 194 1 gusting 6 25.6
2020-Sep-17 00:15 129 2 gusting 6 25.6
2020-Sep-17 00:10 192 1 gusting 6 25.6
2020-Sep-17 00:05 132 1 gusting 3 25.6
2020-Sep-17 00:00 161 0 gusting 5 25.6
2020-Sep-16 23:55 101 2 gusting 6 25.0
2020-Sep-16 23:50 165 1 gusting 6 25.6
2020-Sep-16 23:45 132 1 gusting 5 25.6
2020-Sep-16 23:40 156 0 gusting 4 25.6
2020-Sep-16 23:35 077 1 gusting 3 25.6
2020-Sep-16 23:30 110 1 gusting 3 25.6
2020-Sep-16 23:25 167 25.6
2020-Sep-16 23:20 120 3 gusting 7 25.6
2020-Sep-16 23:16 162 1 gusting 4 25.0
2020-Sep-16 23:10 143 1 gusting 6 25.6
2020-Sep-16 23:05 166 3 gusting 7 25.6
2020-Sep-16 23:00 086 2 gusting 7 25.6
2020-Sep-16 22:55 182 3 gusting 6 25.6
2020-Sep-16 22:50 171 2 gusting 8 25.6
2020-Sep-16 22:45 146 4 gusting 8 25.6
2020-Sep-16 22:40 158 2 gusting 6 26.1
2020-Sep-16 22:35 190 4 gusting 7 26.1
2020-Sep-16 22:32 169 2 gusting 8 25.6
2020-Sep-16 22:25 188 4 gusting 6 26.1
2020-Sep-16 22:20 169 2 gusting 6 26.1
2020-Sep-16 22:15 189 2 gusting 7 26.1
2020-Sep-16 22:10 160 3 gusting 7 26.1
2020-Sep-16 22:05 194 3 gusting 10 26.1
2020-Sep-16 22:01 117 4 gusting 10 26.1
2020-Sep-16 21:55 142 3 gusting 9 26.1
2020-Sep-16 21:50 135 3 gusting 9 26.1
2020-Sep-16 21:45 321 2 gusting 6 26.1
2020-Sep-16 21:40 155 3 gusting 7 26.1
2020-Sep-16 21:35 188 2 gusting 6 26.1
2020-Sep-16 21:30 186 3 gusting 7 26.1
2020-Sep-16 21:25 167 2 gusting 7 26.1
2020-Sep-16 21:20 146 2 gusting 8 26.1
2020-Sep-16 21:17 186 3 gusting 8 25.6
2020-Sep-16 21:10 230 2 gusting 7 26.1
2020-Sep-16 21:05 152 3 gusting 6 26.1
2020-Sep-16 21:00 192 1 gusting 9 26.1
2020-Sep-16 20:55 281 2 gusting 9 26.1
2020-Sep-16 20:50 080 3 gusting 7 25.6
2020-Sep-16 20:45 175 3 gusting 7 25.6
2020-Sep-16 20:40 238 1 gusting 8 25.6
2020-Sep-16 20:35 130 2 gusting 7 25.6
2020-Sep-16 20:30 009 2 gusting 7 25.6
2020-Sep-16 20:25 165 3 gusting 7 25.6
2020-Sep-16 20:20 159 3 gusting 10 25.6
2020-Sep-16 20:16 123 4 gusting 10 25.6
2020-Sep-16 20:11 152 3 gusting 8 25.6
2020-Sep-16 20:05 186 3 gusting 6 25.0
2020-Sep-16 20:02 178 0 gusting 3 25.0
2020-Sep-16 19:55 046 1 gusting 3 25.0
2020-Sep-16 19:50 055 0 gusting 3 25.0
2020-Sep-16 19:45 065 0 gusting 4 24.4
2020-Sep-16 19:40 059 2 gusting 4 24.4
2020-Sep-16 19:35 054 1 gusting 3 24.4
2020-Sep-16 19:30 044 1 gusting 3 24.4
2020-Sep-16 19:25 052 1 gusting 5 24.4
2020-Sep-16 19:20 055 2 gusting 5 24.4
2020-Sep-16 19:15 079 2 gusting 6 24.4
2020-Sep-16 19:10 047 3 gusting 7 24.4
2020-Sep-16 19:05 042 2 gusting 7 24.4
2020-Sep-16 19:01 132 1 gusting 9 25.0
2020-Sep-16 18:55 243 4 gusting 9 24.4
2020-Sep-16 18:50 106 1 gusting 6 24.4
2020-Sep-16 18:45 108 1 gusting 5 24.4
2020-Sep-16 18:40 016 3 gusting 6 23.9
2020-Sep-16 18:35 028 2 gusting 6 23.9
2020-Sep-16 18:30 032 1 gusting 8 23.9
2020-Sep-16 18:25 223 2 gusting 8 23.9
2020-Sep-16 18:20 159 1 gusting 8 23.9
2020-Sep-16 18:15 160 0 gusting 6 23.9
2020-Sep-16 18:10 161 1 gusting 6 23.9
2020-Sep-16 18:05 126 1 gusting 6 23.9
2020-Sep-16 18:01 055 0 gusting 5 23.3
2020-Sep-16 17:55 073 2 gusting 5 23.3
2020-Sep-16 17:50 071 2 gusting 6 23.3
2020-Sep-16 17:45 031 2 gusting 6 23.9
2020-Sep-16 17:40 121 3 gusting 6 23.9
2020-Sep-16 17:35 110 2 gusting 6 23.9
2020-Sep-16 17:31 061 0 gusting 7 23.3
2020-Sep-16 17:25 050 4 gusting 9 23.3
2020-Sep-16 17:20 055 5 gusting 9 23.3
2020-Sep-16 17:15 055 3 gusting 7 23.3
2020-Sep-16 17:10 022 5 gusting 11 23.3
2020-Sep-16 17:05 069 5 gusting 12 23.3
2020-Sep-16 17:00 059 5 gusting 12 23.9
2020-Sep-16 16:55 077 3 gusting 12 23.9
2020-Sep-16 16:50 053 5 gusting 12 23.9
2020-Sep-16 16:45 049 5 gusting 11 24.4
2020-Sep-16 16:40 140 5 gusting 11 25.0
2020-Sep-16 16:35 039 4 gusting 10 25.0
2020-Sep-16 16:30 040 4 gusting 12 25.6
2020-Sep-16 16:25 117 4 gusting 13 25.6
2020-Sep-16 16:20 355 5 gusting 13 25.6
2020-Sep-16 16:17 047 5 gusting 12 25.6
2020-Sep-16 16:10 157 6 gusting 11 25.6
2020-Sep-16 16:05 061 6 gusting 13 25.6
2020-Sep-16 16:00 113 6 gusting 13 26.1
2020-Sep-16 15:55 025 6 gusting 12 26.1
2020-Sep-16 15:50 055 3 gusting 10 26.1
2020-Sep-16 15:45 225 5 gusting 10 26.1
2020-Sep-16 15:40 013 6 gusting 14 25.6
2020-Sep-16 15:35 053 3 gusting 14 25.6
2020-Sep-16 15:30 079 4 gusting 13 25.6
2020-Sep-16 15:25 059 3 gusting 11 25.6
2020-Sep-16 15:20 135 4 gusting 11 25.6
2020-Sep-16 15:15 043 3 gusting 10 25.6
2020-Sep-16 15:10 068 6 gusting 10 25.6
2020-Sep-16 15:05 117 4 gusting 11 25.6
2020-Sep-16 15:03 054 5 gusting 11 25.6
2020-Sep-16 14:55 069 6 gusting 13 25.6
2020-Sep-16 14:50 130 5 gusting 14 25.6
2020-Sep-16 14:45 049 6 gusting 14 25.6
2020-Sep-16 14:40 086 8 gusting 14 25.0
2020-Sep-16 14:35 031 4 gusting 14 25.0
2020-Sep-16 14:30 044 7 gusting 13 25.0
2020-Sep-16 14:25 070 3 gusting 12 25.0
2020-Sep-16 14:20 053 5 gusting 8 24.4
2020-Sep-16 14:15 063 4 gusting 8 24.4
2020-Sep-16 14:05 062 6 gusting 12 24.4
2020-Sep-16 14:00 178 4 gusting 16 24.4
2020-Sep-16 13:55 078 6 gusting 16 24.4
2020-Sep-16 13:50 101 4 gusting 9 24.4
2020-Sep-16 13:46 081 5 gusting 12 23.9
2020-Sep-16 13:40 049 9 gusting 15 24.4
2020-Sep-16 13:35 085 8 gusting 16 23.9
2020-Sep-16 13:30 044 7 gusting 16 23.9
2020-Sep-16 13:25 062 8 gusting 15 23.9
2020-Sep-16 13:20 054 6 gusting 15 23.9
2020-Sep-16 13:15 065 7 gusting 15 23.9
2020-Sep-16 13:10 024 6 gusting 11 23.9
2020-Sep-16 13:05 089 6 gusting 11 23.9
2020-Sep-16 13:00 055 6 gusting 11 23.9
2020-Sep-16 12:55 034 5 gusting 11 23.3
2020-Sep-16 12:50 037 5 gusting 12 23.3
2020-Sep-16 12:46 057 4 gusting 12 22.8
2020-Sep-16 12:40 073 6 gusting 13 22.8
2020-Sep-16 12:35 058 6 gusting 13 22.8
2020-Sep-16 12:30 056 5 gusting 9 22.8
2020-Sep-16 12:25 034 6 gusting 8 22.2
2020-Sep-16 12:20 069 4 gusting 7 22.2
2020-Sep-16 12:15 018 2 gusting 7 21.7
2020-Sep-16 12:10 051 2 gusting 7 22.2
2020-Sep-16 12:05 047 3 gusting 7 22.2
2020-Sep-16 12:00 355 3 gusting 7 21.7
2020-Sep-16 11:55 061 4 gusting 6 21.7
2020-Sep-16 11:50 040 3 gusting 5 21.7
2020-Sep-16 11:48 038 2 gusting 7 21.1
2020-Sep-16 11:40 054 3 gusting 7 21.1
2020-Sep-16 11:35 030 2 gusting 7 21.1
2020-Sep-16 11:30 017 3 gusting 5 21.1
2020-Sep-16 11:25 036 3 gusting 5 21.1
2020-Sep-16 11:20 066 2 gusting 5 20.6
2020-Sep-16 11:15 031 2 gusting 4 20.6
2020-Sep-16 11:10 017 2 gusting 4 20.6
2020-Sep-16 11:05 360 2 gusting 4 20.6
2020-Sep-16 11:00 333 2 gusting 3 20.0
2020-Sep-16 10:55 022 1 gusting 3 20.0
2020-Sep-16 10:50 355 1 gusting 2 20.0
2020-Sep-16 10:45 014 1 gusting 3 20.0
2020-Sep-16 10:40 015 2 gusting 3 20.0
2020-Sep-16 10:35 011 0 gusting 2 20.0
2020-Sep-16 10:32 032 0 gusting 1 20.0